Seattle, WA
on Tuesday, November 6, 2012

Tuesday
Previous Day Next Day
Daily Summary
 ActualAverageRecord
Temperature
Mean Temperature °F 48°F  
Max Temperature 55°F 53°F 65°F (1976)
Min Temperature 44°F 42°F 30°F (2003)
Degree Days
Heating Degree Days 15 17  
Month to date heating degree days 61 101  
Since 1 July heating degree days 554 698  
Cooling Degree Days 0 0  
Month to date cooling degree days 0 0  
Year to date cooling degree days 177 189  
Moisture
Dew Point 46°F   
Average Humidity 85    
Maximum Humidity 93    
Minimum Humidity 77    
Precipitation
Precipitation 0.01 in 0.21 in 3.29 in (2006)
Month to date precipitation 0.98 1.19  
Year to date precipitation 34.11 26.76  
Snow
Snow 0.00 in in 0.20 in (1975)
Month to date snowfall 0.0  
Since 1 July snowfall 0.0  
Snow Depth 0.00 in   
Wind
Wind Speed 8 mph   
Max Wind Speed 22 mph   
Max Gust Speed 29 mph   
Visibility 6 miles   
Events Fog , Rain   

Key: T is trace of precipitation, MM is missing value
Source: NWS Daily Summary
Time(PST)TemperatureDew PointHumidity Pressure Visibility Wind DirectionWind SpeedGust SpeedPrecipitationEvents Conditions
12:53 AM 48.0°F 44.1°F 86% 30.17 in 10.0 miles NE 4.6 mph - N/A   Scattered Clouds
1:53 AM 46.9°F 43.0°F 86% 30.15 in 10.0 miles North 3.5 mph - N/A   Scattered Clouds
2:53 AM 46.0°F 43.0°F 89% 30.13 in 7.0 miles NNW 3.5 mph - N/A   Scattered Clouds
3:11 AM 46.4°F 42.8°F 87% 30.11 in 5.0 miles Calm Calm - N/A   Mostly Cloudy
3:21 AM 44.6°F 42.8°F 93% 30.11 in 5.0 miles NNW 3.5 mph - N/A   Mostly Cloudy
3:53 AM 46.0°F 43.0°F 89% 30.12 in 6.0 miles Calm Calm - N/A   Partly Cloudy
4:53 AM 46.0°F 43.0°F 89% 30.10 in 1.5 miles East 3.5 mph - N/A   Mostly Cloudy
4:55 AM 46.4°F 42.8°F 87% 30.08 in 0.5 miles East 4.6 mph - N/A   Mostly Cloudy
5:20 AM 46.4°F 44.6°F 93% 30.07 in 0.5 miles Calm Calm - N/A Fog Fog
5:48 AM 44.6°F 42.8°F 93% 30.07 in 0.5 miles SSE 3.5 mph - N/A Fog Fog
5:53 AM 45.0°F 43.0°F 93% 30.09 in 0.5 miles Calm Calm - N/A Fog Fog
6:30 AM 44.6°F 42.8°F 93% 30.05 in 1.5 miles Calm Calm - N/A   Mostly Cloudy
6:53 AM 45.0°F 43.0°F 93% 30.08 in 1.5 miles Calm Calm - N/A   Mostly Cloudy
7:24 AM 46.4°F 44.6°F 93% 30.05 in 0.8 miles Calm Calm - N/A   Overcast
7:53 AM 46.9°F 45.0°F 93% 30.07 in 0.5 miles Calm Calm - N/A   Overcast
8:53 AM 48.0°F 46.0°F 93% 30.06 in 0.2 miles SSE 4.6 mph - N/A Fog Fog
9:41 AM 48.2°F 46.4°F 93% 30.03 in 1.0 miles SSE 4.6 mph - N/A   Mostly Cloudy
9:53 AM 48.9°F 46.0°F 90% 30.05 in 3.0 miles South 3.5 mph - N/A   Mostly Cloudy
10:26 AM 50.0°F 46.4°F 87% 30.01 in 4.0 miles South 6.9 mph - 0.00 in Rain Light Rain
10:53 AM 51.1°F 46.0°F 83% 30.04 in 4.0 miles South 4.6 mph - N/A   Haze
11:53 AM 54.0°F 46.0°F 75% 30.00 in 10.0 miles South 6.9 mph - N/A   Mostly Cloudy
12:53 PM 53.1°F 46.0°F 77% 30.00 in 10.0 miles West 6.9 mph - N/A   Mostly Cloudy
1:53 PM 54.0°F 48.9°F 83% 30.01 in 10.0 miles SSW 9.2 mph - N/A   Overcast
2:53 PM 53.1°F 48.9°F 86% 30.01 in 10.0 miles SSW 8.1 mph - N/A   Overcast
3:15 PM 53.6°F 50.0°F 88% 29.99 in 10.0 miles SSW 9.2 mph - 0.01 in Rain Light Rain
3:53 PM 53.1°F 50.0°F 89% 30.01 in 10.0 miles South 11.5 mph - 0.01 in   Overcast
4:43 PM 53.6°F 51.8°F 94% 29.99 in 10.0 miles SSW 13.8 mph - 0.00 in Rain Light Rain
4:53 PM 54.0°F 51.1°F 90% 30.01 in 10.0 miles SSW 13.8 mph - 0.00 in   Mostly Cloudy
5:17 PM 53.6°F 50.0°F 88% 29.97 in 10.0 miles South 15.0 mph - 0.00 in Rain Light Rain
5:53 PM 53.1°F 48.0°F 83% 29.99 in 10.0 miles South 16.1 mph 21.9 mph 0.00 in Rain Light Rain
6:22 PM 53.6°F 48.2°F 82% 29.98 in 10.0 miles SW 16.1 mph 25.3 mph 0.00 in   Mostly Cloudy
6:53 PM 54.0°F 48.0°F 80% 30.01 in 10.0 miles SSW 13.8 mph 19.6 mph 0.00 in   Mostly Cloudy
7:44 PM 51.8°F 46.4°F 82% 30.00 in 10.0 miles SSW 13.8 mph - N/A   Scattered Clouds
7:53 PM 52.0°F 46.9°F 83% 30.03 in 10.0 miles SSW 17.3 mph 21.9 mph N/A   Scattered Clouds
8:53 PM 51.1°F 46.0°F 83% 30.04 in 10.0 miles South 12.7 mph - 0.00 in   Partly Cloudy
9:53 PM 50.0°F 45.0°F 83% 30.05 in 10.0 miles SSW 15.0 mph 25.3 mph N/A   Partly Cloudy
10:53 PM 50.0°F 45.0°F 83% 30.06 in 10.0 miles South 16.1 mph - 0.00 in   Partly Cloudy
11:53 PM 48.9°F 44.1°F 83% 30.06 in 10.0 miles SSW 12.7 mph 21.9 mph N/A   Scattered Clouds
Moon Phase
Nov. 06 Nov. 06 Nov. 13 Nov. 20 Nov. 28
Sunrise:07:01 AM (PST) Moon Rise:11:34 PM (PST)11/6
Sunset:04:43 PM (PST) Moon Set:12:52 PM (PST)11/6

Copyright © 2014 The Weather Underground, Inc.